Vorticity
19 16 14 17 3 15 8 10 10 8 6 6 8 8 9 7 5 5 6 4 4 4 3 3 2 1 1 3 2 2 4 4 4 4 7 -2 1 -2 1 5 11 14 19 7 6 7 8 4 5 5 6 4 5 4
-8 17 8 9 2 8 10 8 11 12 6 5 6 7 8 10 8 6 5 5 4 5 5 5 3 3 3 2 3 4 3 3 5 9 5 2 -4 1 3 11 16 23 22 5 -0 -1 5 1 3 5 5 5 4 3
12 10 15 5 1 -6 11 10 1 15 8 6 5 4 5 6 8 8 9 7 8 7 6 7 7 5 5 5 5 5 8 7 7 8 1 -3 -1 3 13 19 13 17 14 6 3 6 4 5 2 5 3 3 6 2
4 11 15 20 11 -4 2 10 4 8 13 7 6 9 7 5 5 7 8 8 8 9 7 9 7 6 6 6 5 6 7 6 6 6 -4 -7 1 11 16 13 10 12 11 6 6 4 6 6 3 -2 3 6 1 3
1 -6 -8 11 10 22 7 5 7 8 11 9 6 8 9 10 7 5 5 9 10 8 8 9 7 6 6 6 7 6 5 6 6 -1 -4 1 8 13 14 6 7 18 12 -1 1 4 6 3 1 1 3 3 6 9
4 18 9 -5 -7 2 10 25 5 6 8 14 8 10 5 5 7 8 7 8 9 7 7 8 7 5 8 5 6 6 6 1 1 -1 1 9 12 12 10 4 12 8 4 4 1 5 5 3 -0 -1 3 8 9 10
17 11 4 5 24 8 9 16 -2 6 13 14 6 10 11 9 7 6 9 9 5 5 7 8 6 6 8 5 4 7 2 -6 -2 10 16 18 13 7 7 6 12 7 6 4 8 6 2 3 0 7 10 11 8 7
17 17 15 2 7 3 -0 12 13 3 15 15 10 8 8 12 12 5 13 9 7 8 8 9 8 5 10 5 11 1 -8 1 19 25 13 7 6 3 6 5 5 6 6 8 5 4 3 6 10 13 12 6 8 12
5 14 14 13 16 9 4 6 10 -4 10 20 2 13 11 12 13 10 8 11 13 5 4 3 4 -3 -7 2 3 -5 0 19 8 1 0 5 2 5 8 6 6 13 9 4 3 7 9 12 13 5 8 11 11 12
3 5 19 10 7 3 6 5 10 3 20 26 -9 9 26 -6 14 15 0 9 8 0 12 -8 3 -7 12 15 29 26 11 3 6 1 5 5 5 6 12 16 14 10 7 6 10 15 16 7 6 9 11 13 11 14
13 -2 8 24 6 12 3 3 3 8 8 8 -0 9 5 5 -1 26 13 1 13 3 0 6 21 11 1 5 12 15 11 8 7 6 5 7 11 12 8 5 6 10 12 11 12 6 6 9 11 11 8 8 13 12
35 23 1 11 20 2 11 11 11 1 2 10 22 10 4 3 7 1 3 22 19 20 25 4 6 14 16 7 7 7 5 5 6 9 7 9 10 8 9 8 8 10 10 7 4 6 9 10 10 11 15 15 12 12
14 28 25 -1 17 15 3 15 25 14 -3 -13 -1 -3 3 -1 2 5 8 6 4 5 8 11 8 8 11 7 5 4 3 6 10 8 11 14 7 7 10 10 13 10 7 8 10 9 11 9 12 16 17 9 11 17
15 17 18 23 6 21 16 8 -2 1 11 16 18 11 18 12 2 -2 7 7 10 5 2 0 8 -1 3 15 12 13 10 12 13 12 14 8 6 8 11 13 12 11 9 9 11 12 13 16 18 14 11 17 18 17
20 21 15 19 22 13 17 7 23 24 5 3 20 7 9 2 12 13 10 -1 -1 5 11 11 11 14 11 10 7 10 11 9 12 10 7 8 9 14 11 6 6 7 9 12 11 16 17 11 11 16 18 16 14 10
20 34 15 2 13 25 17 19 -6 8 25 32 11 6 4 7 5 6 10 13 15 16 16 13 12 15 13 8 10 9 11 8 6 7 7 7 11 8 8 8 9 10 8 14 21 14 12 14 17 17 16 11 10 18
2 26 15 11 1 14 17 23 23 20 11 4 2 11 11 22 21 22 20 19 19 20 21 19 13 8 8 8 12 10 11 5 3 3 7 10 10 11 8 10 11 11 20 16 12 11 15 16 16 11 10 14 24 22
3 -19 10 21 9 -5 8 9 12 18 22 18 17 9 12 12 12 6 -2 3 11 9 6 4 5 7 8 12 13 7 3 2 4 13 15 11 12 9 11 11 15 18 12 11 10 16 15 14 14 14 17 19 20 13
18 11 27 26 6 11 9 5 3 3 4 5 8 11 12 13 13 11 12 10 7 7 7 6 6 10 10 7 2 2 6 16 18 12 11 13 12 14 17 18 13 8 10 13 16 14 13 19 17 14 12 14 20 18
12 25 7 8 8 21 14 10 8 12 9 8 5 4 3 4 6 7 7 7 7 10 10 12 14 11 7 6 15 21 17 13 13 7 8 13 16 16 12 6 5 10 13 15 14 13 21 18 13 12 9 14 18 12
14 25 30 6 3 9 6 15 20 15 11 14 16 12 11 14 13 14 14 14 12 14 22 16 7 11 18 15 14 14 13 11 8 15 19 16 11 9 6 10 11 15 19 16 13 23 18 8 9 11 10 10 13 21
14 1 6 11 11 10 6 8 9 10 9 9 7 7 8 11 11 11 13 13 18 20 12 11 19 16 13 14 12 11 10 14 16 11 8 8 9 12 13 11 13 17 15 19 20 19 9 0 4 13 18 14 12 14
-9 -6 3 6 4 6 11 5 4 5 11 14 15 15 18 23 22 20 18 15 17 14 16 18 15 15 17 15 13 11 10 9 7 8 11 13 12 11 12 16 19 16 18 17 13 10 9 5 6 18 13 14 14 15
2 7 8 5 7 -1 10 5 20 29 29 32 27 15 12 12 13 12 12 15 16 13 16 14 14 12 9 9 9 8 8 9 11 11 12 13 13 18 23 27 21 18 16 11 12 12 13 16 17 17 19 13 19 13
2 10 8 14 14 14 19 17 16 8 3 4 9 10 9 11 12 13 12 15 9 13 11 10 10 11 10 4 3 7 7 7 10 12 20 15 17 21 25 19 16 15 14 19 23 18 14 23 23 19 21 21 16 12
14 12 10 13 8 4 6 1 5 8 7 6 9 13 12 11 14 15 17 11 11 9 7 7 8 4 3 6 7 6 4 10 20 18 18 17 18 21 17 12 7 13 11 10 14 16 13 14 14 3 0 2 3 4
7 6 6 8 8 10 13 11 10 14 19 20 18 16 13 11 10 4 3 4 5 5 4 2 3 8 9 6 6 14 24 27 24 19 18 15 9 9 13 6 6 7 7 9 9 13 18 12 3 -1 2 4 4 7
9 10 8 12 14 18 22 23 20 14 11 6 6 6 7 7 5 4 6 5 0 4 10 8 5 9 18 24 22 18 14 20 21 21 16 11 12 13 13 11 12 9 6 7 10 9 4 1 1 2 4 1 7 11
11 16 15 9 10 14 13 11 8 7 6 9 9 1 -2 5 7 3 3 8 10 17 20 19 15 11 7 7 7 8 11 19 22 25 19 14 13 11 11 8 6 7 9 13 13 9 10 10 9 8 4 7 11 11
13 16 17 19 16 9 10 7 7 5 5 5 5 7 6 6 12 20 21 13 11 13 16 23 20 19 24 22 16 11 8 20 21 18 10 8 12 9 3 1 7 11 9 10 12 12 11 10 10 10 11 11 13 16
4 3 4 6 2 0 2 5 6 8 9 10 14 20 16 11 10 15 17 17 15 11 11 8 34 64 49 17 13 14 10 16 20 16 10 11 11 8 6 9 12 13 13 13 11 9 7 8 11 14 17 16 13 11
6 10 11 10 12 14 14 17 18 14 11 10 13 17 19 15 12 11 9 10 9 9 10 14 27 43 42 35 18 11 13 11 13 13 10 9 9 9 10 13 15 13 12 5 3 10 17 10 7 7 8 14 12 12
4 7 10 6 12 25 25 20 17 14 14 18 13 11 9 9 11 11 11 10 9 10 15 9 12 17 25 24 22 16 11 11 11 11 11 11 12 13 11 8 7 7 6 8 13 13 4 7 15 17 13 11 9 10
Height
5605 5614 5622 5629 5637 5644 5652 5660 5668 5675 5681 5687 5694 5700 5706 5711 5716 5721 5726 5730 5734 5736 5739 5742 5744 5747 5748 5749 5750 5751 5751 5750 5749 5749 5747 5745 5744 5742 5740 5737 5733 5730 5720 5717 5711 5710 5707 5702 5697 5693 5689 5681 5675 5669
5599 5607 5615 5623 5630 5638 5645 5653 5660 5668 5674 5680 5687 5693 5699 5704 5709 5714 5719 5722 5726 5729 5732 5734 5736 5738 5739 5740 5742 5742 5742 5741 5740 5739 5737 5735 5734 5732 5728 5724 5723 5721 5715 5708 5704 5704 5697 5691 5687 5682 5677 5670 5664 5657
5591 5600 5608 5616 5624 5631 5638 5646 5653 5660 5667 5673 5679 5685 5691 5697 5701 5706 5710 5714 5717 5720 5723 5726 5727 5729 5731 5732 5733 5733 5732 5732 5731 5729 5727 5726 5724 5721 5718 5713 5710 5710 5705 5699 5694 5695 5687 5681 5675 5669 5664 5658 5651 5644
5583 5592 5601 5608 5617 5624 5632 5639 5646 5653 5659 5666 5672 5678 5683 5688 5692 5697 5701 5705 5708 5711 5713 5717 5718 5720 5721 5722 5723 5723 5723 5722 5721 5719 5716 5715 5713 5711 5705 5702 5700 5700 5694 5689 5686 5682 5675 5670 5664 5659 5654 5646 5638 5630
5575 5584 5594 5602 5609 5616 5624 5632 5640 5646 5653 5659 5664 5669 5675 5679 5683 5687 5691 5695 5698 5702 5705 5707 5708 5711 5712 5712 5713 5713 5712 5711 5710 5709 5707 5704 5702 5699 5693 5689 5690 5685 5681 5677 5672 5667 5663 5658 5652 5646 5638 5631 5621 5613
5566 5576 5585 5594 5602 5609 5616 5623 5632 5638 5645 5651 5656 5661 5666 5671 5675 5679 5683 5686 5689 5691 5694 5698 5700 5700 5701 5702 5702 5702 5701 5701 5700 5698 5696 5693 5690 5686 5680 5677 5678 5672 5668 5663 5660 5655 5649 5643 5637 5631 5623 5614 5605 5595
5557 5567 5575 5585 5593 5602 5609 5616 5624 5631 5637 5643 5647 5652 5657 5661 5665 5669 5674 5677 5678 5680 5683 5686 5689 5694 5693 5692 5692 5692 5691 5690 5689 5686 5683 5681 5679 5674 5671 5667 5666 5661 5656 5651 5646 5641 5637 5630 5624 5617 5607 5599 5589 5578
5548 5557 5566 5575 5584 5593 5601 5608 5617 5624 5628 5634 5639 5643 5647 5651 5656 5661 5663 5666 5669 5671 5673 5674 5680 5683 5685 5684 5683 5681 5680 5679 5677 5674 5672 5670 5666 5663 5660 5658 5654 5649 5644 5639 5634 5628 5621 5615 5607 5598 5590 5582 5575 5565
5539 5547 5556 5565 5575 5584 5592 5601 5609 5616 5621 5624 5629 5633 5637 5642 5647 5653 5653 5655 5657 5661 5661 5665 5669 5670 5671 5672 5671 5671 5669 5666 5664 5663 5662 5659 5656 5652 5648 5644 5640 5635 5629 5625 5620 5614 5608 5600 5591 5581 5572 5564 5555 5548
5530 5538 5546 5555 5565 5574 5584 5592 5600 5607 5611 5615 5619 5623 5627 5634 5638 5641 5642 5643 5644 5648 5649 5654 5658 5657 5659 5658 5656 5655 5653 5652 5651 5651 5648 5647 5644 5639 5635 5631 5627 5621 5615 5609 5604 5598 5591 5583 5574 5567 5558 5547 5536 5527
5519 5528 5536 5545 5554 5563 5574 5583 5591 5598 5601 5605 5607 5612 5618 5622 5625 5627 5630 5633 5635 5637 5641 5642 5643 5645 5647 5645 5643 5640 5636 5633 5634 5635 5633 5632 5631 5624 5621 5617 5611 5606 5599 5593 5586 5579 5571 5564 5557 5549 5540 5530 5521 5511
5507 5516 5527 5534 5542 5552 5562 5571 5580 5587 5590 5594 5598 5603 5606 5609 5612 5614 5616 5619 5622 5625 5628 5631 5632 5632 5632 5631 5628 5627 5624 5621 5621 5622 5618 5616 5615 5609 5605 5599 5594 5589 5583 5576 5568 5561 5554 5546 5538 5530 5521 5512 5504 5496
5499 5506 5515 5524 5531 5541 5550 5559 5568 5574 5579 5585 5586 5590 5594 5594 5597 5602 5606 5609 5613 5614 5616 5617 5618 5618 5618 5617 5614 5613 5610 5609 5607 5605 5603 5601 5598 5594 5589 5585 5581 5574 5567 5559 5554 5546 5539 5532 5523 5513 5504 5495 5488 5482
5490 5498 5505 5512 5520 5529 5538 5547 5556 5561 5567 5570 5573 5577 5581 5583 5588 5594 5596 5597 5600 5601 5601 5602 5604 5604 5604 5601 5599 5598 5595 5593 5589 5590 5588 5586 5583 5578 5574 5570 5564 5556 5550 5545 5539 5532 5524 5515 5508 5500 5490 5481 5473 5467
5482 5489 5497 5504 5510 5519 5528 5533 5541 5550 5554 5558 5562 5563 5572 5575 5578 5581 5582 5584 5586 5587 5588 5588 5589 5589 5587 5584 5584 5582 5579 5575 5574 5574 5573 5571 5568 5563 5558 5552 5546 5541 5535 5529 5521 5514 5508 5499 5493 5488 5477 5468 5459 5452
5474 5482 5491 5499 5504 5510 5518 5523 5529 5535 5539 5544 5550 5556 5560 5563 5563 5565 5567 5570 5572 5573 5574 5574 5575 5573 5572 5570 5570 5567 5564 5563 5559 5558 5556 5554 5551 5547 5541 5536 5532 5526 5520 5514 5507 5499 5492 5484 5477 5471 5464 5454 5447 5437
5471 5478 5486 5493 5501 5505 5509 5514 5519 5524 5527 5534 5542 5544 5546 5547 5549 5551 5553 5556 5557 5558 5560 5559 5560 5559 5558 5556 5555 5552 5549 5547 5546 5544 5541 5538 5534 5530 5525 5521 5516 5510 5504 5497 5491 5485 5477 5469 5462 5455 5449 5443 5434 5425
5466 5473 5480 5486 5493 5498 5503 5506 5511 5513 5519 5525 5529 5530 5532 5535 5538 5540 5542 5544 5546 5545 5546 5547 5547 5547 5546 5543 5539 5535 5533 5532 5531 5530 5528 5522 5517 5513 5508 5504 5500 5494 5489 5483 5476 5471 5463 5457 5450 5443 5436 5429 5422 5415
5466 5471 5476 5482 5487 5491 5495 5499 5503 5507 5513 5516 5519 5521 5522 5525 5527 5529 5530 5532 5532 5532 5534 5537 5535 5535 5532 5527 5522 5520 5518 5519 5519 5516 5512 5506 5500 5497 5493 5487 5483 5479 5474 5467 5462 5457 5452 5444 5437 5431 5425 5418 5413 5406
5462 5468 5473 5478 5481 5485 5489 5493 5496 5500 5505 5508 5510 5512 5513 5515 5516 5517 5518 5519 5519 5520 5523 5524 5522 5517 5515 5513 5512 5509 5506 5502 5501 5500 5499 5494 5487 5483 5477 5472 5469 5465 5460 5453 5448 5444 5439 5434 5426 5421 5416 5410 5404 5399
5460 5464 5468 5471 5476 5481 5484 5488 5490 5494 5496 5498 5499 5501 5502 5503 5504 5505 5505 5506 5507 5511 5510 5506 5505 5504 5503 5501 5497 5494 5492 5488 5486 5483 5483 5482 5478 5472 5465 5459 5453 5450 5445 5440 5437 5433 5427 5422 5418 5413 5408 5402 5396 5391
5456 5459 5463 5468 5472 5475 5479 5482 5485 5487 5490 5490 5492 5491 5492 5492 5492 5493 5493 5495 5497 5495 5491 5492 5492 5490 5489 5486 5483 5480 5477 5475 5473 5469 5465 5461 5461 5458 5453 5445 5441 5437 5431 5426 5423 5421 5417 5412 5408 5403 5398 5393 5388 5384
5453 5457 5461 5465 5468 5471 5476 5477 5479 5480 5481 5482 5482 5482 5483 5483 5483 5483 5484 5486 5484 5479 5480 5480 5478 5477 5476 5474 5471 5467 5463 5461 5459 5455 5451 5446 5443 5439 5436 5432 5426 5423 5420 5415 5411 5408 5405 5401 5397 5392 5388 5384 5379 5376
5451 5455 5458 5461 5464 5467 5468 5469 5469 5470 5471 5471 5472 5472 5474 5474 5474 5474 5475 5475 5471 5469 5469 5468 5467 5465 5463 5460 5458 5454 5451 5447 5444 5441 5436 5431 5428 5425 5419 5416 5411 5408 5406 5404 5400 5396 5393 5389 5385 5381 5378 5374 5371 5367
5449 5451 5455 5456 5458 5459 5459 5460 5461 5462 5464 5464 5465 5464 5464 5463 5464 5465 5466 5464 5461 5460 5459 5457 5456 5453 5450 5447 5445 5441 5436 5432 5429 5427 5424 5414 5412 5411 5408 5404 5401 5398 5394 5392 5388 5385 5382 5378 5375 5372 5369 5365 5362 5360
5445 5447 5449 5450 5450 5453 5454 5455 5456 5456 5456 5456 5456 5455 5454 5454 5455 5455 5455 5452 5452 5450 5449 5447 5444 5440 5437 5433 5429 5425 5421 5417 5412 5409 5408 5403 5400 5397 5396 5395 5392 5389 5385 5382 5379 5376 5373 5370 5367 5365 5362 5358 5354 5350
5441 5443 5443 5444 5446 5447 5448 5449 5448 5448 5447 5447 5447 5446 5445 5446 5446 5446 5444 5442 5441 5439 5436 5432 5428 5425 5422 5419 5414 5410 5405 5401 5398 5396 5394 5392 5389 5387 5386 5384 5382 5380 5377 5374 5371 5367 5365 5362 5359 5356 5353 5349 5344 5339
5438 5438 5439 5440 5440 5441 5441 5440 5440 5440 5439 5439 5440 5439 5439 5439 5437 5434 5431 5429 5427 5424 5421 5417 5412 5408 5405 5402 5398 5395 5392 5388 5385 5384 5382 5380 5378 5377 5375 5373 5371 5368 5366 5364 5361 5358 5355 5353 5349 5346 5342 5339 5334 5329
5432 5433 5434 5433 5433 5433 5433 5433 5433 5432 5432 5432 5432 5431 5430 5427 5425 5422 5419 5416 5413 5409 5405 5402 5398 5392 5389 5386 5383 5381 5378 5375 5373 5372 5371 5370 5368 5366 5364 5362 5360 5358 5355 5353 5350 5347 5344 5341 5337 5334 5330 5326 5321 5317
5427 5426 5426 5426 5427 5427 5427 5426 5426 5425 5424 5423 5422 5420 5418 5414 5409 5407 5404 5402 5397 5392 5388 5383 5379 5376 5372 5369 5367 5365 5364 5361 5360 5360 5359 5359 5357 5356 5353 5351 5349 5346 5343 5341 5338 5334 5331 5328 5324 5320 5316 5312 5307 5303
5421 5420 5420 5420 5420 5419 5417 5416 5416 5415 5414 5412 5409 5406 5403 5399 5396 5394 5391 5387 5382 5377 5372 5366 5358 5350 5350 5351 5352 5351 5351 5350 5348 5348 5347 5346 5345 5343 5342 5339 5337 5334 5331 5328 5325 5322 5319 5315 5311 5307 5303 5299 5295 5291
5412 5412 5411 5410 5410 5408 5407 5406 5404 5403 5402 5400 5397 5393 5390 5386 5383 5381 5377 5372 5368 5363 5359 5354 5346 5339 5336 5336 5338 5339 5338 5337 5337 5336 5335 5334 5332 5330 5328 5326 5324 5321 5318 5316 5313 5309 5306 5302 5299 5295 5290 5286 5282 5277
5403 5401 5400 5399 5398 5397 5395 5393 5392 5392 5391 5387 5384 5381 5377 5374 5370 5367 5363 5359 5356 5352 5348 5343 5337 5333 5330 5328 5327 5326 5326 5325 5325 5323 5322 5320 5319 5317 5315 5312 5310 5307 5305 5302 5298 5295 5292 5289 5285 5281 5276 5272 5268 5264